Hallock, MN

3:09 AM CDT on April 25, 2017 (GMT -0500)
Hallock Municipal

Weather History for KHCO - June, 2013

Change the Weather History Date:

Wednesday, June 12, 2013

  Actual Average Record
Temperature  
Mean Temperature 62 °F -  
Max Temperature 73 °F 76 °F 98 °F (1988)
Min Temperature 50 °F 53 °F 30 °F (1969)
Degree Days  
Heating Degree Days 4    
Growing Degree Days 12 (Base 50)    
Moisture  
Dew Point 52 °F    
Average Humidity 67    
Maximum Humidity 100    
Minimum Humidity 41    
Precipitation  
Precipitation 0.00 in - - ()
Sea Level Pressure  
Sea Level Pressure 29.97 in    
Wind  
Wind Speed 6 mph (North)    
Max Wind Speed 13 mph    
Max Gust Speed 18 mph    
Visibility 10 miles    
Events      
Averages and records for this station are not official NWS values.
T = Trace of Precipitation, MM = Missing Value Source: NWS Daily Summary

Daily Weather History Graph

Daily Weather History Graph

Search for Another Location

Airport or City:

Trip Planner

Search our weather history database for the weather conditions in past years. The results will help you decide how hot, cold, wet, or windy it might be!

Date:

Astronomy

Jun. 12, 2013 Rise Set
Actual Time 5:24 AM CDT 9:31 PM CDT
Civil Twilight 4:42 AM CDT 10:13 PM CDT
Nautical Twilight 3:42 AM CDT 11:13 PM CDT
Astronomical Twilight 1:43 AM CDT 1:18 AM CDT
Moon 9:20 AM CDT (6/12) 11:49 PM CDT (6/12)
Length of Visible Light 17h 31m
Length of Day
16h 06m
Waxing Crescent, 14% of the Moon is Illuminated
Jun 12
Waxing Crescent
Jun 16
First Quarter
Jun 23
Full
Jun 29
Last Quarter
Jul 8
New

Hourly Weather History & Observations

Time (CDT) Temp. Dew Point Humidity Pressure Visibility Wind Dir Wind Speed Gust Speed Precip Events Conditions
12:14 AM 60.8 °F 53.6 °F 77% 29.89 in 10.0 mi ENE 6.9 mph - N/A   Clear
12:33 AM 60.8 °F 53.6 °F 77% 29.89 in 10.0 mi NE 5.8 mph - N/A   Clear
12:53 AM 59.0 °F 53.6 °F 82% 29.89 in 10.0 mi NE 6.9 mph - N/A   Clear
1:13 AM 59.0 °F 53.6 °F 82% 29.90 in 10.0 mi NE 5.8 mph - N/A   Clear
1:33 AM 57.2 °F 53.6 °F 88% 29.91 in 10.0 mi NE 5.8 mph - N/A   Clear
1:54 AM 55.4 °F 51.8 °F 88% 29.91 in 10.0 mi NE 4.6 mph - N/A   Clear
2:13 AM 55.4 °F 51.8 °F 88% 29.91 in 10.0 mi NE 4.6 mph - N/A   Clear
2:33 AM 55.4 °F 51.8 °F 88% 29.91 in 10.0 mi NE 3.5 mph - N/A   Clear
2:54 AM 55.4 °F 51.8 °F 88% 29.90 in 10.0 mi Calm Calm - N/A   Clear
3:13 AM 55.4 °F 51.8 °F 88% 29.90 in 10.0 mi Calm Calm - N/A   Clear
3:33 AM 55.4 °F 51.8 °F 88% 29.90 in 10.0 mi North 3.5 mph - N/A   Clear
3:54 AM 53.6 °F 51.8 °F 94% 29.92 in 10.0 mi Calm Calm - N/A   Clear
4:13 AM 51.8 °F 51.8 °F 100% 29.92 in 10.0 mi NNW 3.5 mph - N/A   Clear
4:33 AM 51.8 °F 50.0 °F 94% 29.93 in 10.0 mi Calm Calm - N/A   Clear
4:54 AM 51.8 °F 48.2 °F 88% 29.93 in 10.0 mi NNW 4.6 mph - N/A   Clear
5:13 AM 51.8 °F 50.0 °F 94% 29.94 in 10.0 mi NNW 4.6 mph - N/A   Clear
5:33 AM 51.8 °F 48.2 °F 88% 29.94 in 10.0 mi Calm Calm - N/A   Clear
5:54 AM 50.0 °F 48.2 °F 94% 29.94 in 10.0 mi Calm Calm - N/A   Clear
6:13 AM 51.8 °F 48.2 °F 88% 29.94 in 10.0 mi Calm Calm - N/A   Clear
6:33 AM 53.6 °F 51.8 °F 94% 29.95 in 10.0 mi North 3.5 mph - N/A   Clear
6:54 AM 55.4 °F 51.8 °F 88% 29.96 in 10.0 mi NNW 4.6 mph - N/A   Clear
7:13 AM 55.4 °F 51.8 °F 88% 29.96 in 10.0 mi NNW 4.6 mph - N/A   Clear
7:33 AM 57.2 °F 53.6 °F 88% 29.96 in 10.0 mi NNW 4.6 mph - N/A   Clear
7:54 AM 60.8 °F 53.6 °F 77% 29.96 in 10.0 mi North 4.6 mph - N/A   Clear
8:13 AM 62.6 °F 53.6 °F 72% 29.95 in 10.0 mi North 3.5 mph - N/A   Clear
8:33 AM 62.6 °F 55.4 °F 77% 29.95 in 10.0 mi North 4.6 mph - N/A   Clear
8:54 AM 64.4 °F 53.6 °F 68% 29.96 in 10.0 mi North 4.6 mph - N/A   Clear
9:13 AM 66.2 °F 53.6 °F 64% 29.96 in 10.0 mi North 5.8 mph - N/A   Clear
9:33 AM 66.2 °F 53.6 °F 64% 29.96 in 10.0 mi NNE 9.2 mph - N/A   Clear
9:53 AM 68.0 °F 53.6 °F 60% 29.96 in 10.0 mi NNE 9.2 mph - N/A   Clear
10:13 AM 69.8 °F 51.8 °F 53% 29.96 in 10.0 mi NNE 9.2 mph 18.4 mph N/A   Clear
10:33 AM 68.0 °F 51.8 °F 56% 29.96 in 10.0 mi NNE 10.4 mph - N/A   Clear
10:53 AM 69.8 °F 51.8 °F 53% 29.96 in 10.0 mi NNE 8.1 mph - N/A   Clear
11:13 AM 69.8 °F 51.8 °F 53% 29.97 in 10.0 mi North 9.2 mph - N/A   Clear
11:34 AM 69.8 °F 51.8 °F 53% 29.97 in 10.0 mi North 9.2 mph - N/A   Scattered Clouds
11:53 AM 69.8 °F 51.8 °F 53% 29.98 in 10.0 mi North 9.2 mph - N/A   Scattered Clouds
12:13 PM 69.8 °F 51.8 °F 53% 29.99 in 10.0 mi NNW 10.4 mph - N/A   Scattered Clouds
12:34 PM 69.8 °F 51.8 °F 53% 29.99 in 10.0 mi NW 8.1 mph - N/A   Mostly Cloudy
12:53 PM 69.8 °F 51.8 °F 53% 29.99 in 10.0 mi NNW 6.9 mph - N/A   Mostly Cloudy
1:13 PM 69.8 °F 48.2 °F 46% 29.99 in 10.0 mi North 8.1 mph - N/A   Overcast
1:33 PM 71.6 °F 50.0 °F 46% 29.99 in 10.0 mi North 6.9 mph - N/A   Mostly Cloudy
1:53 PM 69.8 °F 50.0 °F 49% 29.98 in 10.0 mi North 11.5 mph - N/A   Mostly Cloudy
2:13 PM 71.6 °F 50.0 °F 46% 29.98 in 10.0 mi NNW 8.1 mph - N/A   Mostly Cloudy
2:33 PM 71.6 °F 48.2 °F 43% 29.98 in 10.0 mi NNE 10.4 mph - N/A   Mostly Cloudy
2:53 PM 71.6 °F 48.2 °F 43% 29.98 in 10.0 mi NNW 4.6 mph - N/A   Mostly Cloudy
3:13 PM 73.4 °F 48.2 °F 41% 29.98 in 10.0 mi North 9.2 mph - N/A   Mostly Cloudy
3:33 PM 71.6 °F 48.2 °F 43% 29.99 in 10.0 mi North 10.4 mph - N/A   Mostly Cloudy
3:53 PM 71.6 °F 48.2 °F 43% 29.99 in 10.0 mi North 12.7 mph 16.1 mph N/A   Mostly Cloudy
4:14 PM 71.6 °F 46.4 °F 41% 29.99 in 10.0 mi North 10.4 mph - N/A   Overcast
4:33 PM 71.6 °F 50.0 °F 46% 29.99 in 10.0 mi North 12.7 mph - N/A   Overcast
4:53 PM 73.4 °F 48.2 °F 41% 29.99 in 10.0 mi North 12.7 mph 18.4 mph N/A   Overcast
5:13 PM 73.4 °F 48.2 °F 41% 30.00 in 10.0 mi North 10.4 mph 16.1 mph N/A   Overcast
5:33 PM 73.4 °F 50.0 °F 44% 30.00 in 10.0 mi North 10.4 mph 17.3 mph N/A   Overcast
5:53 PM 73.4 °F 51.8 °F 47% 30.00 in 10.0 mi North 10.4 mph - N/A   Overcast
6:13 PM 71.6 °F 50.0 °F 46% 30.00 in 10.0 mi North 11.5 mph - N/A   Overcast
6:33 PM 71.6 °F 51.8 °F 50% 30.00 in 10.0 mi North 12.7 mph - N/A   Mostly Cloudy
6:53 PM 71.6 °F 51.8 °F 50% 30.00 in 10.0 mi NNE 9.2 mph - N/A   Scattered Clouds
7:13 PM 71.6 °F 51.8 °F 50% 30.01 in 10.0 mi North 8.1 mph - N/A   Overcast
7:33 PM 69.8 °F 51.8 °F 53% 30.01 in 10.0 mi North 10.4 mph - N/A   Overcast
7:53 PM 69.8 °F 53.6 °F 56% 30.02 in 10.0 mi North 9.2 mph - N/A   Mostly Cloudy
8:13 PM 69.8 °F 53.6 °F 56% 30.02 in 10.0 mi North 10.4 mph - N/A   Scattered Clouds
8:33 PM 69.8 °F 53.6 °F 56% 30.02 in 10.0 mi North 6.9 mph - N/A   Clear
8:53 PM 68.0 °F 55.4 °F 64% 30.02 in 10.0 mi North 6.9 mph - N/A   Scattered Clouds
9:13 PM 66.2 °F 55.4 °F 68% 30.04 in 10.0 mi NNE 5.8 mph - N/A   Scattered Clouds
9:33 PM 64.4 °F 55.4 °F 73% 30.04 in 10.0 mi North 4.6 mph - N/A   Clear
9:53 PM 62.6 °F 55.4 °F 77% 30.04 in 10.0 mi North 5.8 mph - N/A   Clear
10:13 PM 62.6 °F 55.4 °F 77% 30.05 in 10.0 mi North 6.9 mph - N/A   Clear
10:33 PM 62.6 °F 55.4 °F 77% 30.06 in 10.0 mi North 6.9 mph - N/A   Clear
10:53 PM 62.6 °F 55.4 °F 77% 30.06 in 10.0 mi North 6.9 mph - N/A   Clear
11:13 PM 60.8 °F 55.4 °F 82% 30.06 in 10.0 mi North 6.9 mph - N/A   Clear
11:33 PM 60.8 °F 55.4 °F 82% 30.06 in 10.0 mi North 5.8 mph - N/A   Clear
11:53 PM 59.0 °F 53.6 °F 82% 30.07 in 10.0 mi North 6.9 mph - N/A   Clear